Regional Weather Roundup
Issued by NWS

Home | Current Version | Previous Version | Text Only | Print | Product List | Glossary On
Versions: 1 2 3 4 5 6 7 8 9 10 11 12 13 14 15 16 17 18 19 20 21 22 23 24 25 26 27 28 29 30 31 32 33 34 35 36 37 38 39 40 41 42 43 44 45 46 47 48 49 50
000
ASUS43 KLSX 220607
RWRMO

WEATHER SUMMARY FOR MISSOURI
NATIONAL WEATHER SERVICE SPRINGFIELD MO
100 AM CDT FRI AUG 22 2014

NOTE: "FAIR" INDICATES FEW OR NO CLOUDS BELOW 12,000 FEET WITH NO
       SIGNIFICANT WEATHER AND/OR OBSTRUCTIONS TO VISIBILITY.
       CURRENT SKY AND/OR WEATHER CONDITIONS ARE NOT AVAILABLE FOR
       CHILLICOTHE AND FARMINGTON.

MOZ001>031-035>038-043-044-053-054-220700-
...NORTHERN AND WESTERN MISSOURI...

CITY           SKY/WX    TMP DP  RH WIND       PRES   REMARKS
KANSAS CTY INT FAIR      82  72  71 S17       29.92S
6HR MIN TEMP:  82; 6HR MAX TEMP:  91;

KANSAS C DTWN  FAIR      85  71  63 S15       29.91S HX  90
6HR MIN TEMP:  84; 6HR MAX TEMP:  94;

LEE`S SUMMIT   FAIR      82  71  69 SW12      29.95R
6HR MIN TEMP:  82; 6HR MAX TEMP:  91;

ST JOSEPH      FAIR      81  74  79 S7        29.89S
6HR MIN TEMP:  81; 6HR MAX TEMP:  89;

CHILLICOTHE      N/A     82  72  71 S6        29.92S
6HR MIN TEMP:  82; 6HR MAX TEMP:  89;

KIRKSVILLE     FAIR      82  73  74 SW10      29.92F
6HR MIN TEMP:  77; 6HR MAX TEMP:  86;


$$
MOZ066>068-077>081-088>096-101>105-220700-
...SOUTHWEST MISSOURI...

CITY           SKY/WX    TMP DP  RH WIND       PRES   REMARKS
SPRINGFIELD    FAIR      78  69  73 S10       30.02S
6HR MIN TEMP:  78; 6HR MAX TEMP:  93;

JOPLIN         FAIR      80  71  74 S10       29.99S
6HR MIN TEMP:  80; 6HR MAX TEMP:  91;


$$
MOZ032>034-039>042-045>050-055>058-069>072-220700-
...CENTRAL MISSOURI...

CITY           SKY/WX    TMP DP  RH WIND       PRES   REMARKS
COLUMBIA       FAIR      77  71  82 S7        29.97R
6HR MIN TEMP:  77; 6HR MAX TEMP:  89;

JEFFERSON CITY FAIR      81  69  67 S6        29.96R
6HR MIN TEMP:  79; 6HR MAX TEMP:  89;

ROLLA          FAIR      78  66  66 SW8       30.00S
6HR MIN TEMP:  78; 6HR MAX TEMP:  88;

SEDALIA        FAIR      81  69  67 SW9       29.98R
6HR MIN TEMP:  81; 6HR MAX TEMP:  91;

WHITEMAN AFB   FAIR      76  67  73 S9        29.96R
OSAGE BEACH    FAIR      79  66  65 S5        29.99S

$$
MOZ051-052-059>065-220700-
...EAST CENTRAL MISSOURI...

CITY           SKY/WX    TMP DP  RH WIND       PRES   REMARKS
ST LOUIS INTL  FAIR      85  74  69 S10       29.97S HX  92
6HR MIN TEMP:  85; 6HR MAX TEMP:  93;

SPIRIT OF STL  FAIR      81  71  71 S8        29.95S
6HR MIN TEMP:  78; 6HR MAX TEMP:  89;

ST CHARLES     FAIR      78  75  90 CALM      29.94S
6HR MIN TEMP:  76; 6HR MAX TEMP:  88;


$$
MOZ072>076-082>087-097>100-106>115-220700-
...SOUTH CENTRAL AND SOUTHEAST MISSOURI...

CITY           SKY/WX    TMP DP  RH WIND       PRES   REMARKS
CAPE GIRARDEAU FAIR      79  73  82 SW5       30.03R
6HR MIN TEMP:  78; 6HR MAX TEMP:  86;

FARMINGTON     FAIR      79  72  78 S8        30.05S
6HR MIN TEMP:  79; 6HR MAX TEMP:  90;

POPLAR BLUFF   FAIR      77  70  79 SW6       30.02S
6HR MIN TEMP:  76; 6HR MAX TEMP:  88;

WEST PLAINS    FAIR      76  66  71 SW3       30.07S
6HR MIN TEMP:  76; 6HR MAX TEMP:  89;


$$



USA.gov is the U.S. government's official web portal to all federal, state and local government web resources and services.